CAPE
111 121 114 83 68 51 60 68 64 12 0 0 0 0 20 31 63 117 81 53 6 75 48 27 14 62 89 77 75 19 85 35 59 89 72 22 35 36 22 14 0 0 9 20 20 101 17 0 0 7 5 0 0 0
84 100 70 51 45 43 67 51 39 19 8 0 0 9 26 35 50 74 122 30 1 65 42 0 0 0 1 8 89 38 63 86 99 87 83 80 81 61 34 37 6 25 6 34 5 4 0 0 0 0 0 0 0 0
63 67 58 53 46 45 45 42 34 25 17 11 15 23 33 42 48 79 188 67 1 0 0 3 26 0 0 0 0 119 40 43 67 39 105 90 77 54 66 33 35 27 4 8 8 0 3 0 0 0 0 0 0 0
65 59 53 50 41 37 36 35 34 28 25 23 28 34 30 46 60 79 177 126 34 1 0 1 0 0 0 0 0 14 38 2 23 51 97 98 75 40 68 57 57 59 23 0 4 0 22 0 0 0 0 0 0 0
67 61 49 45 38 38 33 28 26 33 40 36 29 35 45 57 62 142 235 201 80 5 0 8 1 0 0 0 1 20 33 39 25 8 11 15 1 1 0 1 17 6 12 16 10 0 2 1 0 0 0 1 0 0
72 74 54 44 42 40 37 37 30 27 30 41 48 56 67 68 62 189 61 210 192 3 0 17 3 4 4 3 3 7 9 8 12 8 9 9 0 23 49 21 4 12 0 0 0 0 0 0 0 0 0 0 0 0
60 76 67 56 37 37 38 42 45 46 45 47 50 57 71 65 202 94 42 34 35 0 0 4 9 5 8 9 6 6 5 5 27 22 13 19 27 15 39 14 0 8 0 0 0 0 1 2 0 0 0 0 0 0
31 52 57 41 25 34 36 34 42 54 57 59 64 68 59 71 115 135 109 35 34 1 0 14 15 12 2 9 5 8 5 11 13 18 4 11 8 21 17 0 2 0 0 0 0 0 0 0 0 0 0 0 0 0
29 36 24 8 15 33 29 24 25 55 75 81 76 95 253 148 86 83 29 50 123 20 1 9 2 9 4 7 7 14 29 7 10 17 7 5 5 8 0 0 0 0 0 0 0 0 0 0 0 0 0 0 0 0
38 29 16 16 21 30 37 30 15 58 85 101 116 80 40 9 26 82 95 97 26 0 1 34 8 15 15 9 4 12 11 31 23 3 2 21 7 0 0 0 0 0 0 0 0 0 1 0 0 0 0 0 0 0
37 29 12 19 27 28 36 35 42 52 55 73 0 0 6 26 60 78 7 2 2 4 16 54 3 5 4 15 16 14 9 15 13 18 9 4 0 0 0 0 0 0 0 0 0 0 0 0 0 0 0 0 0 0
56 38 14 18 32 41 48 45 56 68 42 0 1 2 5 14 0 10 90 9 12 10 5 8 11 6 20 15 8 13 6 10 3 7 16 7 0 0 0 0 0 0 0 0 0 0 0 0 0 0 0 0 0 0
50 50 23 8 29 47 55 42 33 11 0 7 0 1 0 1 133 132 51 53 37 16 9 14 18 1 5 10 10 5 3 7 7 16 3 0 0 0 0 0 0 0 0 0 0 0 0 0 0 0 0 0 0 0
32 40 33 9 23 44 58 78 1 23 6 2 3 2 99 29 66 27 18 57 1 0 5 30 12 7 6 4 6 6 3 6 8 7 0 0 0 0 0 0 0 0 0 0 0 0 0 0 0 0 0 0 0 0
34 33 38 25 33 39 55 11 23 32 0 6 6 66 3 1 51 90 155 0 0 7 29 48 6 1 4 7 5 2 6 2 2 0 0 0 0 0 0 0 0 0 0 0 0 0 0 0 0 0 0 0 0 0
29 48 51 31 25 20 12 34 0 0 1 2 1 3 3 2 6 62 119 50 22 76 75 14 1 9 8 13 4 3 2 1 0 0 1 0 0 0 0 0 0 0 0 0 0 0 0 0 0 0 0 0 0 0
32 6 14 25 39 10 22 1 0 2 9 3 4 1 0 8 4 45 41 2 24 38 51 5 21 12 6 3 2 2 0 0 3 2 0 0 0 0 0 0 0 0 0 0 0 0 0 0 0 0 0 0 0 0
22 25 18 37 4 21 9 1 4 6 12 4 2 4 2 19 5 14 1 3 13 46 62 17 0 0 0 0 0 0 0 0 0 0 0 0 0 0 0 0 0 0 0 0 0 0 0 0 0 0 0 0 0 0
15 16 8 20 5 1 1 2 6 7 14 10 4 3 3 1 1 0 2 2 1 0 0 2 0 0 0 0 0 32 18 0 0 0 0 0 0 0 0 0 0 0 0 0 0 0 0 0 0 0 0 0 0 0
11 23 10 0 0 0 5 10 8 1 7 4 10 2 7 7 13 14 23 1 0 0 0 0 0 0 4 0 0 0 0 0 0 0 0 2 1 0 0 0 0 0 0 0 0 0 0 0 0 0 0 0 0 0
10 0 0 0 0 1 3 3 10 6 12 5 8 3 4 12 5 23 27 14 21 1 0 0 0 0 0 0 0 0 0 0 0 0 0 0 0 0 0 0 0 0 0 0 0 0 0 0 0 0 0 0 0 0
2 0 2 0 0 1 3 6 6 3 3 13 6 3 6 4 4 6 8 11 8 1 0 0 0 0 0 0 0 0 0 0 0 0 0 0 1 0 0 0 0 0 0 0 0 0 0 0 0 0 0 8 0 0
0 0 0 0 0 4 13 3 1 1 0 4 6 2 3 4 5 1 3 7 1 0 0 0 0 0 0 0 0 0 0 0 0 0 0 0 0 0 0 0 0 0 0 0 0 0 0 0 0 3 2 0 1 5
0 0 0 0 0 10 4 2 7 10 7 5 2 2 5 8 8 5 5 4 0 0 0 0 0 0 0 1 0 0 0 0 0 0 0 0 0 0 0 0 0 0 0 0 0 0 0 0 0 0 0 1 2 4
0 0 0 0 0 1 4 3 2 4 10 8 3 3 3 9 10 10 6 5 3 4 3 2 1 0 0 1 2 1 0 0 0 0 0 0 0 0 0 0 0 0 0 1 1 0 1 2 1 1 0 1 1 1
0 0 0 0 0 0 1 1 1 3 2 3 3 7 4 10 6 2 0 1 3 5 5 7 5 2 2 0 1 0 0 0 0 0 0 0 0 1 0 0 0 0 0 0 2 2 0 0 0 0 0 0 0 0
0 1 1 0 1 2 3 5 3 1 0 1 3 4 1 1 3 1 6 6 5 5 4 4 7 4 2 1 1 0 0 0 0 0 0 0 0 0 0 0 0 0 0 0 2 1 0 0 0 0 0 2 1 0
1 0 0 0 1 0 1 1 2 3 1 0 0 0 0 0 0 5 4 3 4 4 1 1 0 1 0 0 0 1 0 0 0 0 0 0 0 0 0 0 0 0 0 2 4 2 0 0 0 0 0 2 2 3
1 0 0 0 0 1 2 2 3 3 2 0 1 1 3 2 6 4 3 2 1 0 0 2 3 1 0 0 1 1 1 2 0 0 0 0 0 0 0 0 0 0 2 0 0 0 0 0 0 0 0 2 4 4
0 0 0 0 0 1 4 3 4 5 2 1 0 0 1 4 7 4 4 2 3 6 4 3 3 3 1 0 2 2 2 2 19 6 0 0 0 0 0 0 1 1 2 0 0 0 0 0 0 0 1 2 4 4
0 0 0 2 6 10 11 13 5 2 2 3 1 3 4 6 5 4 5 5 3 3 4 4 3 2 1 0 0 0 0 0 0 0 0 1 0 1 0 0 1 2 1 0 0 0 0 0 0 0 1 1 1 1
0 0 0 2 10 6 5 8 6 8 9 5 6 4 3 2 3 4 4 7 4 4 0 1 0 1 1 2 0 2 0 0 0 0 0 0 3 2 0 0 0 1 0 0 0 0 0 0 1 1 0 0 0 0
1 2 1 2 6 5 1 2 1 5 4 3 4 3 2 3 1 3 4 7 6 2 1 3 2 0 0 0 0 0 0 0 0 0 0 0 0 0 0 0 0 0 0 0 0 0 0 0 0 0 0 0 0 0
CIN
0 -1 0 -1 -1 -2 -2 -1 -1 -3 0 0 0 0 -2 -1 -1 -1 -1 -43 -12 0 -3 -13 -13 -1 -1 0 -1 -2 0 -4 -1 0 0 -1 0 0 0 0 0 0 -1 0 0 0 0 0 0 -1 -7 0 0 0
-5 -1 -1 -2 -4 -4 -1 -2 -4 -3 -6 0 0 -4 -1 -1 -2 -3 0 -6 -4 -3 -3 0 -2 0 -3 -1 -3 -25 -2 -7 -1 0 0 0 0 0 0 0 0 0 0 0 0 0 0 0 0 0 0 0 0 0
-11 -7 -4 -3 -3 -1 -1 -4 -2 -3 -3 -2 -2 -1 -1 -1 -4 -2 0 -5 -1 0 0 0 -2 0 0 0 0 -3 -21 -20 -10 -21 0 0 0 0 0 0 0 0 -8 -2 -1 0 -4 0 0 0 0 0 0 0
-1 -7 -15 -3 -2 -1 -2 -2 -2 -2 -2 -2 -2 -1 -1 -1 -1 -3 0 0 -13 -1 0 0 0 0 0 0 0 -36 -36 -29 -40 -10 0 0 0 -7 -1 -4 -1 -7 -5 -1 -1 0 -11 -3 0 0 0 0 0 0
0 0 -1 -1 -1 -1 -1 -2 -2 -2 -1 -1 -2 -1 -1 -1 -2 0 0 0 -5 -9 0 0 0 0 0 0 -52 -44 -21 -9 -14 -11 -5 -2 -5 -4 0 0 -2 -10 -6 0 0 0 0 0 0 0 0 0 0 0
-1 -1 0 -1 -1 -1 -1 -1 -2 -2 -2 -1 -1 -1 -1 -1 -10 0 0 0 0 -1 0 0 0 0 0 0 0 -59 -31 -16 -1 -7 0 0 -1 0 0 0 0 0 0 0 0 0 0 0 0 0 0 0 0 0
-4 -1 -1 -2 -1 -1 -1 -1 -1 -1 -2 -2 -1 -1 -1 -5 0 0 0 -6 -4 0 0 0 0 0 0 0 0 0 0 -9 -5 0 0 0 0 -2 0 0 0 0 0 0 0 0 0 0 0 0 0 0 0 0
-3 -4 -1 -1 -1 -1 -1 -1 -2 -2 -1 -1 -2 -1 -3 -24 -5 -4 -6 -39 -6 -1 0 -10 0 0 0 0 0 0 0 0 0 -5 0 0 -2 0 0 0 0 0 0 0 0 0 0 0 0 0 0 0 0 0
-2 -1 -3 -1 -1 -1 -2 -2 -1 -2 -2 -1 -5 -3 -1 -3 -1 0 -31 -14 -4 -11 0 0 0 0 0 0 0 0 0 0 0 0 0 0 0 0 0 0 0 0 0 0 0 0 0 0 0 0 0 0 0 0
0 0 -1 -1 -1 -4 -5 -4 0 -1 -1 -2 -4 -1 -9 -3 -33 -15 -4 0 -19 0 0 -1 0 0 0 0 0 0 0 0 0 0 0 0 0 0 0 0 0 0 0 0 0 0 0 0 0 0 0 0 0 0
-4 -1 -1 -1 -2 -5 -2 -5 -4 -3 -13 -3 0 0 0 -6 -10 -7 -14 -9 0 0 -1 0 -2 0 0 0 0 0 0 0 0 0 0 0 0 0 0 0 0 0 0 0 0 0 0 0 0 0 0 0 0 0
-1 0 -2 -1 -1 -1 -1 -2 -2 -1 -8 0 0 0 -10 -4 0 -1 0 -4 0 0 0 0 0 0 0 0 0 0 0 0 0 0 0 0 0 0 0 0 0 0 0 0 0 0 0 0 0 0 0 0 0 0
-1 0 -4 -1 -1 -1 -1 -4 -1 -2 0 -1 -4 0 0 0 -2 0 0 -2 -1 0 0 0 0 0 0 -1 0 0 0 0 0 0 0 0 0 0 0 0 0 0 0 0 0 0 0 0 0 0 0 0 0 0
0 -1 -1 -1 0 0 -2 0 -9 -1 -6 0 0 0 -5 -7 -2 -17 -2 -1 0 0 0 0 0 -5 0 -1 0 -2 0 0 0 0 0 0 0 0 0 0 0 0 0 0 0 0 0 0 0 0 0 0 0 0
-1 -1 0 -2 -15 -8 -3 -3 0 -2 0 0 0 -1 -8 0 -21 -14 -7 0 0 0 -24 -4 -1 0 0 0 0 0 0 0 0 0 0 0 0 0 0 0 0 0 0 0 0 0 0 0 0 0 0 0 0 0
-1 -1 -1 0 -9 -3 0 -1 0 0 0 0 0 0 0 0 0 -65 -26 -47 -91 -57 -10 -25 -11 -2 0 -15 0 0 0 0 0 0 -54 0 0 0 0 0 0 0 0 0 0 0 0 0 0 0 0 0 0 0
-2 -1 -3 -3 0 0 0 -1 0 0 0 0 0 0 0 -151 0 -87 -85 -131 -93 -61 -57 -48 -6 -14 -1 -5 0 0 0 0 -92 -132 0 0 0 0 0 0 0 0 0 0 0 0 0 0 0 0 0 0 0 0
-16 -2 -1 -16 0 0 -1 0 0 0 0 0 0 0 0 -100 -88 0 -20 -170 -143 -76 -72 -52 0 0 0 0 0 -13 0 0 0 0 0 0 0 0 0 0 0 0 0 0 0 0 0 0 0 0 0 0 0 0
-8 0 -1 0 -2 0 0 0 0 0 0 0 0 0 0 0 0 0 0 0 -110 -98 -13 -65 0 0 0 0 -63 -162 -174 0 0 0 0 0 0 0 0 0 0 0 0 0 0 0 0 0 0 0 0 0 0 0
0 0 -1 -3 0 0 0 0 0 0 0 0 0 0 0 0 0 0 0 -2 0 0 0 -28 -16 0 -142 0 0 0 0 0 0 0 0 0 0 0 0 0 0 0 0 0 0 0 0 0 0 0 0 0 0 0
-1 -2 0 -1 -3 0 0 0 0 0 0 0 0 0 0 0 0 0 0 0 0 -1 0 0 0 0 0 0 0 0 0 0 0 0 0 0 0 0 0 0 0 0 0 0 0 0 0 0 0 0 0 0 0 0
0 0 -2 0 0 0 0 0 0 0 0 0 0 0 0 0 0 0 0 0 0 0 0 0 0 0 0 0 0 0 0 0 0 0 0 0 0 0 0 0 0 0 0 0 0 0 0 0 0 0 0 0 0 0
0 0 0 0 0 0 0 0 0 0 0 0 0 0 0 0 0 0 0 0 0 0 0 0 0 0 0 0 0 0 0 0 0 0 0 0 0 0 0 0 0 0 0 0 0 0 0 0 0 0 0 0 0 0
0 0 0 0 0 0 0 0 0 0 0 0 0 0 0 0 0 0 0 0 0 0 0 0 0 0 0 0 0 0 0 0 0 0 0 0 0 0 0 0 0 0 0 0 0 0 0 0 0 0 0 0 0 0
0 0 0 0 0 0 0 0 0 0 0 0 0 0 0 0 0 0 0 0 0 0 0 0 0 0 0 0 0 0 0 0 0 0 0 0 0 0 0 0 0 0 0 0 0 0 0 0 0 0 0 0 0 0
0 0 0 0 0 0 0 0 0 0 0 0 0 0 0 0 0 0 0 0 0 0 0 0 0 0 0 0 0 0 0 0 0 0 0 0 0 0 0 0 0 0 0 0 0 0 0 0 0 0 0 0 0 0
0 0 0 0 0 0 0 0 0 0 0 0 0 0 0 0 0 0 0 0 0 0 0 0 0 0 0 0 0 0 0 0 0 0 0 0 0 0 0 0 0 0 0 0 0 0 0 0 0 0 0 0 0 0
0 0 0 0 0 0 0 0 0 0 0 0 0 0 0 0 0 0 0 0 0 0 0 0 0 0 0 0 0 0 0 0 0 0 0 0 0 0 0 0 0 0 0 0 0 0 0 0 0 0 0 0 0 0
0 0 0 0 0 0 0 0 0 0 0 0 0 0 0 0 0 0 0 0 0 0 0 0 0 0 0 0 0 0 0 0 0 0 0 0 0 0 0 0 0 0 0 0 0 0 0 0 0 0 0 0 0 0
0 0 0 0 0 0 0 0 0 0 0 0 0 0 0 0 0 0 0 0 0 0 0 0 0 0 0 0 0 0 0 0 0 0 0 0 0 0 0 0 0 0 0 0 0 0 0 0 0 0 0 0 0 0
0 0 0 0 0 0 0 0 0 0 0 0 0 0 0 0 0 0 0 0 0 0 0 0 0 0 0 0 0 0 0 0 0 0 0 0 0 0 0 0 0 0 0 0 0 0 0 0 0 0 0 0 0 0
0 0 0 0 0 0 0 0 0 0 0 0 0 0 0 0 0 0 0 0 0 0 0 0 0 0 0 0 0 0 0 0 0 0 0 0 0 0 0 0 0 0 0 0 0 0 0 0 0 0 0 0 0 0
0 0 0 0 0 0 0 0 0 0 0 0 0 0 0 0 0 0 0 0 0 0 0 0 0 0 0 0 0 0 0 0 0 0 0 0 0 0 0 0 0 0 0 0 0 0 0 0 0 0 0 0 0 0
Wind_Speed
28 29 29 29 30 29 28 28 27 25 24 23 23 22 22 21 22 14 5 5 4 4 4 6 2 6 4 6 5 5 5 2 2 7 6 4 5 9 10 8 7 10 9 5 7 5 12 7 7 5 3 2 5 7
31 30 29 29 29 30 30 29 28 26 26 25 23 23 22 22 22 20 7 4 1 3 0 2 3 3 4 6 6 6 4 7 8 6 6 5 6 4 9 8 11 7 8 4 9 6 5 5 5 1 4 5 7 9
33 32 32 31 31 32 31 30 29 28 27 26 25 24 24 23 23 20 8 7 3 3 3 3 5 3 3 4 6 5 3 2 4 3 4 4 6 3 7 10 11 10 2 5 5 8 6 6 7 6 5 5 9 7
33 34 34 34 33 32 31 31 30 30 28 27 25 24 24 23 23 22 9 6 6 3 3 3 0 4 2 4 4 2 5 5 4 1 3 3 3 1 3 4 6 3 6 7 4 12 15 16 12 8 6 8 8 6
33 34 34 34 34 34 33 32 31 30 29 28 26 25 25 24 23 14 8 8 8 4 3 3 4 3 3 4 2 4 7 5 2 2 1 2 1 0 0 2 5 8 9 6 6 12 9 13 6 8 11 12 11 11
32 33 33 35 35 34 34 33 32 32 30 28 27 26 26 24 25 10 5 8 11 5 4 3 1 5 4 6 6 5 3 2 2 3 2 2 2 4 5 6 9 14 19 16 16 8 4 1 5 9 9 11 11 10
28 32 33 35 35 35 35 34 33 32 30 29 28 26 26 26 14 13 4 4 14 5 4 3 2 2 10 7 2 2 2 2 3 3 4 4 5 5 5 14 13 11 16 16 12 9 4 9 6 10 11 11 11 10
26 29 33 34 36 35 34 34 33 32 31 30 29 27 27 26 12 9 3 19 18 6 3 4 4 4 4 4 4 3 4 4 5 4 2 4 2 4 10 8 15 23 22 19 16 16 13 10 12 13 13 13 13 11
29 30 31 33 35 34 34 33 33 33 32 30 29 27 11 10 8 10 15 19 4 4 6 5 8 6 5 3 3 2 3 3 1 5 6 7 9 13 7 15 15 21 20 17 12 13 11 15 16 17 16 16 13 12
30 31 32 32 33 33 33 32 30 35 32 31 19 7 6 8 25 21 5 10 6 4 3 5 6 5 10 6 5 5 3 4 4 6 3 7 14 20 18 18 20 18 20 15 15 15 14 14 17 18 18 14 12 12
32 32 32 32 33 34 33 33 34 34 31 12 6 4 5 30 7 5 6 6 5 6 6 10 12 9 5 8 5 4 4 4 4 5 7 6 7 8 25 29 23 23 22 19 21 12 17 17 18 18 17 15 12 13
33 33 33 33 33 34 33 34 34 23 6 10 8 6 6 6 4 8 7 7 7 8 6 15 15 9 6 5 4 7 6 6 7 7 5 7 5 19 18 20 20 21 20 18 17 13 15 14 17 17 16 15 14 13
32 33 33 33 33 33 35 35 36 24 24 8 5 6 5 5 9 11 18 6 9 8 8 12 11 8 5 5 4 6 9 8 5 5 6 5 10 10 9 6 8 7 12 16 16 13 15 16 18 18 17 15 15 13
32 33 32 32 32 34 35 36 34 24 7 3 6 8 7 8 9 7 13 15 8 11 16 16 10 6 4 7 5 8 5 4 6 7 8 9 15 14 3 6 10 12 15 16 16 17 18 18 17 16 13 14 11 11
34 33 33 31 31 30 33 37 37 11 4 4 5 7 8 4 4 9 10 11 11 14 15 13 6 4 4 5 4 4 7 8 8 9 11 7 6 6 7 9 11 13 13 15 16 16 15 15 15 14 13 14 12 10
35 29 19 33 33 32 39 29 4 3 2 5 5 4 6 10 6 7 12 12 13 15 12 5 5 5 5 5 8 9 7 8 7 8 6 3 4 5 6 8 9 12 15 15 15 16 17 15 15 17 16 13 10 11
27 3 32 33 34 40 33 5 3 4 4 6 3 2 6 8 12 10 12 12 16 14 10 6 10 10 7 6 8 7 9 14 7 5 3 4 5 6 7 9 10 13 15 15 16 16 15 15 16 17 16 13 12 10
10 24 34 34 33 24 3 3 4 4 4 3 6 8 4 5 11 10 7 15 14 11 11 7 7 7 8 10 8 11 8 5 4 2 2 3 5 7 8 12 13 14 15 15 16 16 16 16 16 12 14 14 11 10
22 23 35 35 13 6 4 3 3 5 3 3 6 6 3 7 5 5 9 13 6 6 7 6 6 8 6 6 7 6 6 6 5 3 3 4 6 8 10 11 12 14 15 17 17 12 12 14 11 11 10 11 8 8
38 29 22 15 6 4 5 4 2 5 4 3 4 6 6 5 7 9 11 7 7 6 5 5 5 4 4 3 3 3 4 6 7 6 5 5 6 10 11 12 11 14 13 14 12 13 12 10 9 10 9 9 8 8
17 7 10 6 3 4 4 4 4 3 4 4 5 3 6 5 9 11 9 6 6 6 6 4 2 3 3 3 3 4 6 8 7 6 6 8 9 10 10 10 12 11 10 10 11 11 11 10 10 9 9 8 6 6
4 7 3 2 4 4 4 4 5 4 3 4 4 3 5 5 5 5 4 4 5 7 3 2 4 6 5 4 4 4 3 5 3 4 7 12 12 12 11 11 11 10 10 10 11 11 10 9 9 9 9 8 7 6
7 3 3 3 5 4 5 2 4 3 5 4 4 5 3 3 4 5 3 4 3 3 3 3 5 4 4 4 5 6 7 9 7 7 9 9 9 10 9 11 10 10 10 9 9 10 9 10 10 9 9 9 7 7
3 5 4 4 5 5 2 3 3 5 4 4 4 5 6 4 4 3 4 5 4 4 6 7 6 5 4 5 5 6 6 6 6 8 8 10 10 10 11 10 9 8 8 10 9 9 9 9 11 10 9 9 8 7
5 5 3 5 2 4 4 5 4 4 4 5 5 4 6 5 6 7 5 5 8 8 8 8 8 7 7 6 5 6 7 7 8 9 9 9 10 10 10 8 8 8 9 10 10 11 10 10 10 10 10 9 9 9
5 3 2 3 2 3 5 5 5 5 5 4 4 5 4 5 6 6 4 5 7 8 9 9 8 7 7 7 8 8 7 7 9 9 10 10 11 11 12 11 10 7 8 8 11 13 13 11 11 12 10 10 10 9
4 3 2 2 2 4 4 4 3 4 4 5 5 5 4 6 7 3 2 3 3 4 8 8 9 8 8 8 7 7 7 8 7 7 8 8 7 7 8 11 12 9 11 11 10 12 14 13 11 11 10 9 9 9
3 2 4 2 3 3 4 3 3 4 4 4 7 6 6 1 2 3 2 3 3 7 7 6 5 7 8 9 8 9 8 8 10 11 9 8 5 4 6 6 6 14 9 9 9 9 10 10 10 11 10 10 8 8
3 2 3 5 4 5 4 3 3 3 3 1 3 3 3 3 4 3 2 2 4 6 7 7 7 8 9 8 7 6 8 8 13 16 13 8 6 4 4 6 9 8 8 9 9 8 10 9 9 9 9 8 6 7
3 1 4 4 4 3 3 3 2 3 3 3 3 3 3 3 6 5 3 3 4 5 6 7 7 7 9 9 9 7 3 1 2 3 8 9 8 9 8 9 9 9 9 10 10 11 12 9 9 6 7 6 6 6
1 2 4 3 3 2 3 5 5 3 3 4 5 6 5 3 3 7 8 5 4 5 7 7 7 6 8 9 8 9 6 2 1 3 4 7 9 9 8 8 8 8 9 11 10 10 9 8 7 8 8 8 8 7
2 3 4 4 4 3 1 2 3 3 3 3 3 2 2 2 4 4 7 4 3 5 3 6 7 6 4 5 4 3 6 7 5 4 9 8 8 9 9 8 8 9 10 10 9 9 11 10 8 8 8 9 8 8
3 4 5 5 3 3 2 2 4 4 4 3 4 3 3 3 4 3 3 6 3 2 5 4 5 6 6 5 5 7 9 8 9 9 9 9 11 12 9 7 8 9 11 10 9 9 10 10 8 8 7 7 7 7
Wind_Direction
202 201 202 198 198 196 196 194 194 193 192 195 195 191 190 185 185 185 181 179 196 180 185 220 218 235 191 220 180 153 157 232 189 204 210 187 233 211 235 219 185 179 184 196 216 226 255 131 148 216 57 130 166 156
203 202 200 200 200 198 196 194 194 195 198 198 197 193 190 185 185 183 197 157 350 132 115 335 265 318 324 331 243 191 285 164 184 195 205 200 204 220 224 227 210 223 214 203 211 217 97 194 267 289 287 285 183 161
203 202 202 201 199 198 196 194 195 196 198 197 196 193 189 184 184 184 192 145 106 85 9 232 192 147 274 270 314 208 211 155 196 343 192 215 234 227 217 238 235 222 172 226 240 240 268 268 244 249 231 181 162 154
203 202 202 200 198 197 196 196 196 195 195 194 194 189 187 185 186 185 187 170 133 109 189 214 112 236 341 285 280 317 113 129 109 234 194 192 233 307 274 315 263 311 167 225 260 278 282 271 259 260 175 158 139 139
204 202 200 199 198 197 196 195 193 193 192 191 190 187 185 183 183 183 189 181 159 148 165 139 187 180 221 234 217 145 140 132 148 160 154 194 7 129 154 271 202 204 228 215 241 262 286 285 325 154 168 171 160 159
202 201 199 197 196 195 195 193 190 189 190 187 186 184 181 180 179 163 183 215 186 130 100 172 336 168 151 185 183 154 135 129 171 152 179 206 183 238 234 231 234 225 244 254 255 278 333 356 149 169 172 166 168 160
201 200 197 195 193 192 190 191 188 185 186 185 183 181 178 182 178 182 183 149 144 113 110 141 181 207 157 139 132 121 185 191 221 193 217 244 213 223 240 249 259 255 251 247 244 134 150 184 192 175 162 165 153 140
204 198 193 192 187 188 187 187 186 184 184 183 180 178 178 183 158 199 127 150 141 100 152 172 142 176 196 157 151 178 182 201 198 218 168 217 202 233 248 243 222 239 247 239 233 217 266 173 153 161 167 158 160 156
197 190 183 183 181 182 183 183 183 179 179 180 173 170 166 179 196 190 141 160 142 148 184 165 160 167 182 115 107 128 191 198 142 235 218 209 220 227 233 235 225 235 228 232 225 209 183 174 170 172 172 177 171 168
186 183 180 179 179 176 175 175 173 174 170 168 158 169 165 170 116 115 117 181 203 165 239 165 141 159 185 154 145 142 192 224 216 219 217 238 249 252 252 240 241 236 225 214 184 186 185 181 180 178 184 179 175 168
179 179 178 176 175 173 173 170 172 172 165 176 142 155 183 131 121 162 187 177 179 178 196 171 175 142 202 172 140 189 180 193 234 183 214 239 251 215 230 233 236 233 228 217 218 224 198 191 179 175 175 174 164 160
174 174 175 174 174 173 170 170 170 169 154 144 116 159 146 121 158 159 191 168 191 176 190 167 160 134 148 157 144 171 194 193 242 132 222 246 239 242 249 244 242 241 236 232 204 204 183 174 169 167 166 162 161 155
167 170 170 173 174 170 169 171 171 149 124 142 123 172 126 168 172 185 169 171 164 160 169 146 146 141 137 198 124 176 190 211 119 220 233 248 257 268 265 260 242 218 172 186 187 178 157 151 155 158 158 153 152 153
166 165 165 166 164 167 167 166 151 144 119 147 150 133 187 168 197 180 180 165 152 165 160 156 148 129 132 166 149 181 188 153 222 232 240 239 235 252 250 167 164 173 175 170 166 154 149 150 152 156 150 139 147 141
165 160 159 158 156 155 158 153 154 175 114 136 122 193 183 103 126 163 166 123 147 151 147 142 106 110 121 139 198 146 176 224 224 240 239 259 249 227 203 185 177 170 162 163 156 149 143 141 140 138 127 144 137 129
151 146 158 151 149 139 142 150 107 88 74 138 147 134 114 125 151 152 149 137 150 147 139 125 122 142 174 173 179 200 199 217 217 215 233 191 202 204 195 185 176 163 164 156 152 147 143 143 151 139 142 138 138 148
144 110 151 150 149 149 156 112 100 95 138 150 162 157 155 152 164 157 157 149 157 149 157 143 167 185 125 195 198 193 219 225 205 217 203 197 192 177 170 164 157 161 159 153 145 145 142 148 139 140 148 146 156 151
121 137 144 149 139 136 68 74 117 118 132 165 156 154 172 178 157 156 166 155 158 172 163 166 132 182 187 188 204 214 224 220 209 207 178 166 158 159 164 159 161 158 153 148 145 145 145 147 151 154 146 155 152 160
126 132 133 136 128 101 102 109 246 105 91 112 113 112 135 126 155 127 155 164 144 114 125 160 166 185 199 212 217 199 206 192 189 160 127 138 149 150 155 150 152 152 150 151 151 147 149 162 150 147 152 160 168 173
122 122 123 107 102 102 108 109 265 90 111 109 95 122 114 124 141 138 143 166 155 160 184 203 208 189 194 166 178 158 160 148 144 141 140 144 148 153 152 157 155 151 149 144 139 144 153 148 147 155 157 169 172 168
94 83 76 69 89 86 88 140 109 95 105 99 120 92 101 122 133 147 149 165 176 208 213 212 167 120 113 118 141 136 151 172 183 184 167 164 164 156 157 161 153 147 144 146 153 155 157 156 157 155 155 166 161 151
75 81 85 36 91 79 73 24 94 106 93 121 116 93 108 124 133 150 139 181 209 210 219 186 153 158 178 192 172 172 157 175 146 116 110 141 161 163 160 157 158 150 152 159 161 154 156 155 152 153 163 154 153 145
133 93 85 117 99 86 101 260 111 93 113 131 128 108 116 134 133 137 167 223 237 218 190 152 141 167 166 125 140 155 163 167 165 153 153 158 153 151 150 156 159 149 151 158 150 153 154 145 150 156 151 154 150 145
28 55 51 55 66 97 140 86 101 104 103 151 131 117 139 128 146 201 199 203 217 170 189 171 165 149 154 170 180 179 178 181 153 150 159 154 152 156 157 154 154 156 149 144 150 149 144 154 157 160 160 156 163 175
62 17 27 63 63 112 110 121 121 116 124 149 137 141 148 162 188 192 212 187 185 194 192 183 191 197 193 183 181 174 175 178 163 153 162 162 144 141 139 141 145 147 148 146 153 150 157 158 170 165 165 167 177 189
83 23 34 100 119 131 151 131 149 136 122 141 163 131 159 173 185 215 191 165 182 181 180 178 175 178 191 189 177 170 166 167 161 156 153 155 162 152 143 152 156 162 177 160 150 159 164 167 168 168 171 178 186 190
100 88 74 36 96 126 117 92 116 120 131 147 155 155 159 193 210 140 132 159 166 166 169 175 183 185 166 150 140 140 155 160 158 138 141 156 156 160 167 160 170 158 162 158 161 166 164 165 168 174 178 183 189 200
81 66 142 83 86 33 104 109 138 144 147 160 140 169 178 278 78 28 3 3 123 130 123 118 125 133 136 134 131 129 114 114 108 109 105 91 84 96 98 96 109 138 144 155 157 154 155 164 171 177 183 189 191 194
72 63 84 59 61 46 33 30 61 50 31 101 100 115 114 55 360 323 12 80 132 121 114 117 101 105 101 101 108 125 141 147 146 145 139 140 144 142 134 123 139 142 141 139 130 135 149 159 170 175 179 187 182 174
92 55 90 65 56 51 30 347 63 69 48 58 100 116 88 54 14 4 62 95 118 119 125 127 137 143 138 138 132 127 98 22 24 115 154 164 164 137 152 150 144 142 143 140 132 118 112 118 121 118 144 158 174 180
77 108 92 80 88 51 49 91 103 89 69 73 55 87 90 118 85 35 34 37 90 118 129 135 130 135 139 146 148 140 137 162 142 100 95 115 131 144 144 138 137 142 143 142 144 150 146 155 161 164 177 187 191 199
39 65 125 112 113 87 33 51 56 61 72 77 73 78 99 73 66 41 7 1 112 137 121 147 142 139 109 99 89 65 95 123 128 123 137 130 135 138 137 134 137 141 141 143 146 148 161 162 168 178 185 193 194 201
98 95 88 102 114 113 59 68 72 96 59 62 52 51 46 38 79 21 346 6 358 109 130 110 103 119 118 93 100 109 101 88 80 80 90 110 131 136 133 134 135 138 140 140 143 150 158 164 169 176 183 188 193 203